TIBA-1

Last updated on Aug. 8, 2020, 5:32 a.m. UTC

1 44800U 19080A   20220.74350249  .00000147  00000-0  00000+0 0  9995
2 44800   0.0515  17.7688 0002109 123.9211 118.1490  1.00273376  2620
UTC
Height (km)
Latitude
Longitude
Inclination
Orbital Period
UTC large
Height (km)
Speed (km/s)
/
Latitude / Longitude
Inclination (degrees)
Orbital Period (minutes)
Azimuth
Elevation
Range (km)
Doppler Factor
iOS Compass Heading
iOS Angle

Next 30 passes for location: Hong Kong

Rise time Rise Azimuth (degrees) Set time Set Azimuth (degrees) Duration Max altitude (degrees)

No matching passes for this satellites